Location: Olsztyn
(53.7767°N, 20.4765°E)
Time: 21:52:44
(UTC+01:00)

Tiros 1 - Visible Passes

Search period start: 25 January 2022 00:00
Search period end: 04 February 2022 00:00
Orbit: 629 x 664 km, 48.4° (Epoch: 25 January)

Date Brightness Start Highest point End Pass type
(mag) Time Alt. Az. Time Alt. Az. Time Alt. Az.
02 Feb 9.4 19:08:17 10° SSW 19:09:23 14° S 19:09:23 14° S visible
03 Feb 9.4 17:55:16 10° SSE 17:56:02 10° SE 17:56:49 10° SE visible
03 Feb 9.3 19:33:00 10° SW 19:34:31 18° SSW 19:34:31 18° SSW visible
